{"data":{"norad_id":43260,"intl_designator":"2018-031B","name":"GAOFEN-1 03","alt_names":[],"object_type":"PAYLOAD","status":"ACTIVE","operator":null,"country":"PRC","launch_date":"2018-03-31","launch_site_code":"TAISC","launch_vehicle":null,"mission":null,"orbit_class":"UNKNOWN","rcs_meters":null,"size_class":null,"mass_kg":null,"dimensions":null,"purposes":["earth_obs"],"wikipedia_slug":null,"has_3d_model":false,"image_url":null,"decayed_at":null,"tle_current":{"epoch":"2026-09-20T05:21:40.620384Z","epoch_age_seconds":42276,"freshness":"FRESH","line1":"1 43260U 18031B   26263.22338681  .00000356  00000+0  58580-4 0  9993","line2":"2 43260  98.0423 325.2824 0003983 113.6947 246.4681 14.76452089456713","mean_motion":14.76452089,"eccentricity":0.0003983,"inclination_deg":98.0423,"raan_deg":325.2824,"arg_perigee_deg":113.6947,"mean_anomaly_deg":246.4681,"bstar":5.858e-5,"rev_number":45671,"period_min":97.531102480631,"perigee_km":637.75004436753,"apogee_km":643.34112691525,"semimajor_km":7018.6825856414,"source":"CELESTRAK","updated_at":"2026-09-20T09:00:33.972448Z"}}}